| time (UTC) | temp F | wind direction | speed MPH | gust MPH | rain 1hr in | rain 24hr in | rain mn in | humidity % | barometer mb |
| 20260507060032 | 43 | 203 | 0.0 | 4.0 | 0.00 | 0.26 | 0.00 | 84 | 1006.4 |
| 20260507054535 | 43 | 235 | 2.0 | 5.0 | 0.00 | 0.26 | 0.00 | 85 | 1006.4 |
| 20260507053038 | 42 | 215 | 1.0 | 3.0 | 0.00 | 0.26 | 0.00 | 86 | 1006.8 |
| 20260507051540 | 42 | 224 | 0.0 | 2.0 | 0.00 | 0.26 | 0.00 | 86 | 1006.9 |
| 20260507050041 | 42 | 0 | 0.0 | 2.0 | 0.00 | 0.26 | 0.00 | 86 | 1007.0 |
| 20260507044534 | 42 | 0 | 0.0 | 2.0 | 0.00 | 0.26 | 0.00 | 85 | 1007.2 |
| 20260507043036 | 42 | 0 | 0.0 | 3.0 | 0.00 | 0.26 | 0.00 | 85 | 1007.4 |
| 20260507041537 | 42 | 227 | 0.0 | 2.0 | 0.00 | 0.26 | 0.00 | 85 | 1007.5 |
| 20260507040035 | 42 | 0 | 0.0 | 0.0 | 0.00 | 0.26 | 0.00 | 84 | 1007.4 |
| 20260507034551 | 42 | 0 | 0.0 | 2.0 | 0.00 | 0.26 | 0.26 | 84 | 1007.5 |
| 20260507033042 | 42 | 0 | 0.0 | 2.0 | 0.00 | 0.26 | 0.26 | 84 | 1007.7 |
| 20260507031536 | 42 | 0 | 0.0 | 3.0 | 0.00 | 0.26 | 0.26 | 83 | 1007.8 |
| 20260507030036 | 43 | 0 | 0.0 | 2.0 | 0.00 | 0.26 | 0.26 | 83 | 1007.9 |
| 20260507024548 | 43 | 0 | 0.0 | 2.0 | 0.00 | 0.26 | 0.26 | 83 | 1008.2 |
| 20260507023030 | 43 | 0 | 1.0 | 2.0 | 0.00 | 0.26 | 0.26 | 84 | 1008.2 |
| 20260507021545 | 42 | 0 | 0.0 | 2.0 | 0.00 | 0.26 | 0.26 | 83 | 1008.6 |
| 20260507020035 | 43 | 0 | 0.0 | 2.0 | 0.00 | 0.26 | 0.26 | 83 | 1008.5 |
| 20260507014540 | 43 | 0 | 0.0 | 2.0 | 0.00 | 0.26 | 0.26 | 83 | 1008.5 |
| 20260507013034 | 43 | 230 | 0.0 | 2.0 | 0.00 | 0.26 | 0.26 | 84 | 1008.4 |
| 20260507011539 | 43 | 223 | 0.0 | 2.0 | 0.00 | 0.26 | 0.26 | 84 | 1008.4 |
| 20260507010042 | 43 | 198 | 0.0 | 2.0 | 0.00 | 0.26 | 0.26 | 84 | 1008.4 |
| 20260507004534 | 43 | 0 | 0.0 | 1.0 | 0.00 | 0.26 | 0.26 | 83 | 1008.5 |
| 20260507003034 | 43 | 0 | 0.0 | 0.0 | 0.00 | 0.26 | 0.26 | 82 | 1008.4 |
| 20260507001559 | 43 | 0 | 0.0 | 0.0 | 0.00 | 0.26 | 0.26 | 82 | 1008.2 |
| 20260507000037 | 44 | 0 | 0.0 | 0.0 | 0.00 | 0.26 | 0.26 | 80 | 1008.0 |
| 20260506234535 | 44 | 0 | 0.0 | 2.0 | 0.00 | 0.26 | 0.26 | 79 | 1008.0 |
| 20260506233038 | 45 | 0 | 0.0 | 2.0 | 0.00 | 0.26 | 0.26 | 77 | 1008.2 |
| 20260506231533 | 45 | 0 | 0.0 | 2.0 | 0.00 | 0.26 | 0.26 | 76 | 1008.0 |
| 20260506230044 | 45 | 244 | 1.0 | 3.0 | 0.00 | 0.26 | 0.26 | 76 | 1008.2 |
| 20260506224532 | 45 | 188 | 1.0 | 3.0 | 0.00 | 0.26 | 0.26 | 75 | 1008.1 |
| 20260506223039 | 45 | 279 | 1.0 | 3.0 | 0.00 | 0.26 | 0.26 | 76 | 1008.1 |
| 20260506221543 | 45 | 227 | 0.0 | 3.0 | 0.00 | 0.26 | 0.26 | 76 | 1008.2 |
| 20260506220045 | 45 | 290 | 1.0 | 5.0 | 0.00 | 0.26 | 0.26 | 77 | 1008.1 |
| 20260506214534 | 45 | 244 | 2.0 | 4.0 | 0.00 | 0.26 | 0.26 | 76 | 1008.2 |
| 20260506213032 | 45 | 250 | 1.0 | 3.0 | 0.00 | 0.26 | 0.26 | 78 | 1008.1 |
| 20260506211544 | 45 | 173 | 2.0 | 4.0 | 0.00 | 0.26 | 0.26 | 78 | 1008.3 |
| 20260506210035 | 45 | 211 | 0.0 | 4.0 | 0.00 | 0.26 | 0.26 | 78 | 1008.2 |
| 20260506204534 | 45 | 304 | 1.0 | 3.0 | 0.00 | 0.31 | 0.26 | 77 | 1008.2 |
| 20260506203032 | 45 | 0 | 0.0 | 2.0 | 0.00 | 0.31 | 0.26 | 79 | 1008.2 |
| 20260506201536 | 45 | 0 | 1.0 | 4.0 | 0.00 | 0.31 | 0.26 | 77 | 1008.5 |
| 20260506200036 | 45 | 269 | 3.0 | 7.0 | 0.00 | 0.31 | 0.26 | 77 | 1008.6 |
| 20260506194538 | 45 | 231 | 1.0 | 4.0 | 0.00 | 0.31 | 0.26 | 79 | 1008.6 |
| 20260506193034 | 45 | 252 | 3.0 | 9.0 | 0.00 | 0.31 | 0.26 | 79 | 1008.7 |
| 20260506191534 | 45 | 227 | 2.0 | 4.0 | 0.00 | 0.31 | 0.26 | 79 | 1008.7 |
| 20260506190030 | 45 | 0 | 1.0 | 4.0 | 0.00 | 0.31 | 0.26 | 80 | 1008.8 |
| 20260506184535 | 45 | 267 | 1.0 | 5.0 | 0.00 | 0.31 | 0.26 | 80 | 1008.8 |
| 20260506183035 | 45 | 267 | 1.0 | 6.0 | 0.00 | 0.31 | 0.26 | 80 | 1009.0 |
| 20260506181537 | 44 | 176 | 1.0 | 5.0 | 0.00 | 0.31 | 0.26 | 82 | 1008.9 |
| 20260506180038 | 44 | 149 | 3.0 | 8.0 | 0.00 | 0.31 | 0.26 | 82 | 1009.0 |
| 20260506174532 | 43 | 94 | 4.0 | 7.0 | 0.00 | 0.31 | 0.26 | 83 | 1008.9 |
| 20260506173037 | 43 | 130 | 2.0 | 8.0 | 0.01 | 0.31 | 0.26 | 85 | 1009.1 |
| 20260506171535 | 42 | 122 | 2.0 | 6.0 | 0.02 | 0.31 | 0.26 | 85 | 1009.4 |
| 20260506170036 | 42 | 131 | 2.0 | 4.0 | 0.03 | 0.30 | 0.25 | 86 | 1009.4 |
| 20260506164531 | 43 | 188 | 1.0 | 3.0 | 0.03 | 0.31 | 0.25 | 86 | 1009.7 |
| 20260506163035 | 43 | 246 | 1.0 | 3.0 | 0.03 | 0.30 | 0.25 | 87 | 1010.1 |
| 20260506161538 | 43 | 0 | 0.0 | 5.0 | 0.03 | 0.29 | 0.23 | 85 | 1010.2 |
| 20260506160035 | 43 | 0 | 1.0 | 3.0 | 0.04 | 0.28 | 0.22 | 85 | 1010.2 |
| 20260506154539 | 43 | 155 | 1.0 | 5.0 | 0.04 | 0.38 | 0.22 | 86 | 1010.2 |
| 20260506153040 | 43 | 172 | 1.0 | 2.0 | 0.05 | 0.37 | 0.21 | 85 | 1010.2 |
| 20260506151534 | 43 | 92 | 1.0 | 5.0 | 0.06 | 0.36 | 0.19 | 84 | 1010.4 |
| 20260506150045 | 43 | 225 | 2.0 | 5.0 | 0.05 | 0.34 | 0.18 | 85 | 1010.3 |
| 20260506144553 | 43 | 171 | 1.0 | 4.0 | 0.05 | 0.33 | 0.17 | 85 | 1010.5 |
| 20260506143031 | 43 | 287 | 1.0 | 3.0 | 0.04 | 0.32 | 0.15 | 85 | 1010.4 |
| 20260506141536 | 43 | 258 | 2.0 | 5.0 | 0.03 | 0.29 | 0.13 | 85 | 1010.6 |
| 20260506140053 | 44 | 0 | 1.0 | 9.0 | 0.03 | 0.29 | 0.12 | 85 | 1010.3 |
| 20260506134536 | 44 | 244 | 3.0 | 7.0 | 0.03 | 0.28 | 0.11 | 85 | 1010.2 |
| 20260506133034 | 44 | 250 | 0.0 | 5.0 | 0.03 | 0.27 | 0.11 | 85 | 1010.1 |
| 20260506131543 | 44 | 213 | 1.0 | 6.0 | 0.01 | 0.25 | 0.08 | 84 | 1009.9 |
| 20260506130031 | 44 | 200 | 1.0 | 8.0 | 0.03 | 0.25 | 0.08 | 84 | 1010.0 |
| 20260506124536 | 44 | 139 | 2.0 | 5.0 | 0.03 | 0.24 | 0.07 | 84 | 1010.1 |
| 20260506123040 | 44 | 232 | 1.0 | 5.0 | 0.03 | 0.23 | 0.07 | 84 | 1010.1 |
| 20260506121534 | 44 | 265 | 1.0 | 4.0 | 0.03 | 0.23 | 0.07 | 83 | 1010.1 |
| 20260506120035 | 44 | 196 | 1.0 | 5.0 | 0.02 | 0.22 | 0.05 | 82 | 1010.0 |
| 20260506114535 | 44 | 156 | 1.0 | 4.0 | 0.02 | 0.21 | 0.04 | 82 | 1010.1 |
| 20260506113039 | 44 | 241 | 1.0 | 5.0 | 0.01 | 0.20 | 0.03 | 82 | 1010.1 |
| 20260506111536 | 44 | 0 | 1.0 | 6.0 | 0.01 | 0.19 | 0.03 | 81 | 1010.2 |
| 20260506110040 | 44 | 203 | 1.0 | 4.0 | 0.03 | 0.19 | 0.03 | 81 | 1009.8 |
| 20260506104530 | 44 | 254 | 2.0 | 6.0 | 0.02 | 0.18 | 0.02 | 78 | 1009.8 |
| 20260506103030 | 45 | 263 | 2.0 | 4.0 | 0.02 | 0.18 | 0.02 | 77 | 1009.4 |
| 20260506101536 | 46 | 199 | 2.0 | 9.0 | 0.00 | 0.17 | 0.00 | 73 | 1009.3 |
| 20260506100038 | 47 | 241 | 4.0 | 9.0 | 0.00 | 0.16 | 0.00 | 66 | 1009.1 |
| 20260506094531 | 48 | 234 | 3.0 | 6.0 | 0.00 | 0.16 | 0.00 | 65 | 1009.1 |
| 20260506093034 | 49 | 282 | 2.0 | 5.0 | 0.00 | 0.16 | 0.00 | 79 | 1008.8 |
| 20260506091536 | 49 | 219 | 2.0 | 10.0 | 0.00 | 0.16 | 0.00 | 77 | 1008.6 |
| 20260506090038 | 49 | 234 | 3.0 | 7.0 | 0.00 | 0.16 | 0.00 | 77 | 1008.6 |
| 20260506084538 | 50 | 248 | 3.0 | 10.0 | 0.00 | 0.16 | 0.00 | 77 | 1008.9 |
| 20260506083034 | 50 | 238 | 3.0 | 8.0 | 0.00 | 0.16 | 0.00 | 77 | 1009.0 |
| 20260506081541 | 50 | 219 | 3.0 | 9.0 | 0.00 | 0.16 | 0.00 | 77 | 1008.7 |
| 20260506073037 | 51 | 164 | 3.0 | 8.0 | 0.00 | 0.16 | 0.00 | 75 | 1008.5 |
| 20260506071531 | 51 | 206 | 3.0 | 10.0 | 0.00 | 0.16 | 0.00 | 74 | 1008.3 |
| 20260506061541 | 52 | 176 | 2.0 | 8.0 | 0.00 | 0.16 | 0.00 | 72 | 1007.4 |